Hourly Data Report for October 01, 2015

All times are specified in Local Standard Time (LST). Add 1 hour to adjust for Daylight Saving Time where and when it is observed.

RESOLUTE BAY A
NUNAVUT

74°43'01.000" N
94°58'10.000" W
67.70 m
2403498
71924
YRB

Download Data

Hourly Data (October 2015)
Hourly Data Report for October 1, 2015
Temp Definition
°C
Dew Point Temp Definition
°C
Rel Hum Definition
%
Wind Dir Definition
10's deg

Wind Spd Definition
km/h
Visibility Definition
km
Stn Press Definition
kPa
Hmdx Definition


Wind Chill Definition


Weather Definition


TIME
00:00 Legend Double Dagger -1.4 -1.7 98 13 53 1.0 97.99   -10 Snow,Blowing Snow,Blowing Dust
01:00 Legend Double Dagger -1.3 -1.6 98 13 58 1.6 97.91   -10 Snow,Blowing Snow
02:00 Legend Double Dagger -1.2 -1.5 98 13 57 1.6 97.84   -10 Snow,Blowing Snow
03:00 Legend Double Dagger -1.1 -1.4 98 13 53 1.6 97.79   -10 Snow,Blowing Snow
04:00 Legend Double Dagger -0.6 -0.9 98 14 48 9.7 97.76   -9 Freezing Rain
05:00 Legend Double Dagger -0.3 -0.4 99 14 39 8.1 97.74   -8 Freezing Drizzle
06:00 Legend Double Dagger -0.4 -0.5 99 14 31 4.8 97.74   -7 Freezing Drizzle
07:00 Legend Double Dagger -0.6 -0.7 99 17 31 0.4 97.69   -7 LegendNANA
08:00 Legend Double Dagger -0.5 -0.6 99 16 35 0.4 97.63   -8 Drizzle,Freezing Drizzle,Snow,Fog,Freezing Fog
09:00 Legend Double Dagger -0.6 -0.7 99 15 28 0.4 97.58   -7 Snow,Freezing Fog
10:00 Legend Double Dagger -0.3 -0.4 99 16 32 0.4 97.55   -7 Snow,Freezing Fog
11:00 Legend Double Dagger -0.2 -0.3 99 14 28 0.4 97.45   -7 Snow,Freezing Fog
12:00 Legend Double Dagger -0.2 -0.3 99 16 34 0.4 97.37   -7 Snow,Freezing Fog
13:00 Legend Double Dagger -0.1 -0.2 99 16 35 0.8 97.27   -7 Snow,Freezing Fog
14:00 Legend Double Dagger -0.4 -0.5 99 17 27 0.4 97.21   -7 Snow,Freezing Fog
15:00 Legend Double Dagger -0.5 -0.6 99 20 29 0.8 97.20   -7 Snow,Freezing Fog
16:00 Legend Double Dagger -0.3 -0.4 99 21 31 4.8 97.23   -7 Freezing Drizzle
17:00 Legend Double Dagger -0.7 -0.8 99 22 21 4.8 97.31   -6 Freezing Drizzle
18:00 Legend Double Dagger -1.3 -1.4 99 29 27 0.4 97.42   -8 Freezing Drizzle,Snow,Freezing Fog
19:00 Legend Double Dagger LegendMM LegendMM LegendMM 0 LegendMM 0.4 LegendMM     Freezing Drizzle,Snow,Freezing Fog
20:00 Legend Double Dagger -1.6 -3.2 89 3 28 0.4 98.00   -8 Freezing Drizzle,Snow,Freezing Fog
21:00 Legend Double Dagger -1.7 -2.0 98 32 55 0.2 98.32   -11 Moderate Snow,Blowing Snow
22:00 Legend Double Dagger -1.8 -2.2 97 32 65 0.2 98.60   -12 Moderate Snow,Blowing Snow
23:00 Legend Double Dagger -2.8 -3.4 96 32 46 2.0 98.84   -12 Snow,Blowing Snow

Notes on Data Quality.

Legend

  • E = Estimated
  • M = Missing
  • NA = Not Available
  • ‡ = Partner data that is not subject to review by the National Climate Archives
Date modified: